Miscellaneous Local Product
Issued by NWS Hastings, NE

Home | Current Version | Previous Version | Graphics & Text | Print | Product List | Glossary On
Versions: 1 2 3 4 5 6 7 8 9 10 11 12 13 14 15 16 17 18 19 20 21 22 23 24 25 26 27 28 29 30 31 32 33 34 35 36 37 38 39 40 41 42 43 44 45 46 47 48 49 50
000
AXUS43 KGID 200802
MISGRI

GID CWA HOURLY WEATHER ROUNDUP
NATIONAL WEATHER SERVICE HASTINGS NE
300 AM CDT FRI APR 20 2018

NOTE: "FAIR" INDICATES FEW OR NO CLOUDS BELOW 12,000 FEET WITH NO
SIGNIFICANT WEATHER AND/OR OBSTRUCTIONS TO VISIBILITY.

...SOUTH CENTRAL NEBRASKA...

CITY           SKY/WX    TMP DP  RH WIND       PRES   REMARKS
GRAND ISLAND   CLOUDY    40  27  59 SE8       30.34F WCI  34
KEARNEY        CLOUDY    38  27  64 SE9       30.32F WCI  31
HASTINGS       CLOUDY    41  27  57 SE10      30.33F
ORD            CLOUDY    38  28  67 SE7       30.31F WCI  33
YORK             N/A     37  28  70 CALM      30.36F
AURORA         CLOUDY    33  26  75 SE7       30.34F WCI  27
LEXINGTON      MOCLDY    39  28  63 SE7       30.29F WCI  34
HOLDREGE       CLOUDY    38  28  67 SE13      30.29F WCI  31
HEBRON         CLOUDY    34  27  76 CALM      30.36F

...NEBRASKA PANHANDLE...

CITY           SKY/WX    TMP DP  RH WIND       PRES   REMARKS
CHADRON        CLOUDY    45  27  49 SE9       30.12F
ALLIANCE       CLOUDY    41  28  60 SE26G37   30.12F
SCOTTSBLUFF    CLOUDY    42  27  55 SE23G38   30.08F
SIDNEY         CLOUDY    40  26  57 SE24G31   30.10F WCI  29

...WESTERN AND NORTH CENTRAL NEBRASKA...

CITY           SKY/WX    TMP DP  RH WIND       PRES   REMARKS
VALENTINE      CLOUDY    37  28  70 E7        30.27F WCI  32
AINSWORTH      CLOUDY    38  29  69 SE9       30.28S WCI  32
ONEILL         CLOUDY    38  33  81 SE10      30.32F WCI  32
BROKEN BOW     MOCLDY    37  27  67 SE7       30.28F WCI  32
IMPERIAL       CLOUDY    40  27  59 E16       30.19F WCI  31
NORTH PLATTE   MOCLDY    37  29  72 SE10      30.25F WCI  30
MCCOOK         CLOUDY    41  28  60 E10       30.24F

...EASTERN NEBRASKA...

CITY           SKY/WX    TMP DP  RH WIND       PRES   REMARKS
NORFOLK        PTCLDY    34  30  85 E10       30.37F WCI  26
SO SIOUX CITY  PTCLDY    30  23  75 E7        30.43F WCI  23
TEKAMAH        CLOUDY    29  26  89 NE3       30.43
COLUMBUS       CLOUDY    32  28  85 E9        30.38F WCI  24
ALBION         CLOUDY    37  30  76 SE5       30.35F WCI  33
OMAHA EPPLEY   PTCLDY    40  26  57 SE7       30.43F
OFFUTT AFB     CLOUDY    36  26  65 E8        30.41F WCI  30
MILLARD        PTCLDY    42  28  58 CALM      30.42S
LINCOLN        CLOUDY    31  25  78 NE3       30.40S
NEBRASKA CITY  PTCLDY    39  28  65 E3        30.40F
BEATRICE       PTCLDY    42  30  62 SE7       30.38F
FALLS CITY     CLOUDY    38  26  62 CALM      30.40F

...NORTHERN KANSAS...

CITY           SKY/WX    TMP DP  RH WIND       PRES   REMARKS
GOODLAND       CLOUDY    40  27  59 SE14      30.15F WCI  32
HILL CITY      CLOUDY    36  27  69 E7        30.28F WCI  30
NORTON         SUNNY     39  27  60 E6        30.27S WCI  35
PHILLIPSBURG   PTCLDY    39  27  60 E9        30.31S WCI  33
SMITH CENTER   CLEAR     36  27  69 E8        30.32F WCI  29
BELOIT         CLEAR     36  25  64 CALM      30.34F
HAYS           CLOUDY    39  27  62 SE9       30.29F WCI  33
RUSSELL        CLOUDY    37  28  70 SE8       30.30F WCI  31
CONCORDIA      CLOUDY    35  26  69 E3        30.35F
SALINA         CLOUDY    40  29  64 SE5       30.35F
TOPEKA         CLOUDY    37  31  78 CALM      30.39F



USA.gov is the U.S. government's official web portal to all federal, state and local government web resources and services.